• In Deutschland
  • Länderverzeichnis
  • Für 7 Tage
  • Wassertemperatur
  • Satellitenkarten
  • Wetterkarte
  • Widgets
  • user-avatar
    Anmelden

    Stündliche Wetter Lingen

    Heute, 19 Oktober, Donnerstag

    Zeit Temperatur Niederschläge Wind Luftdruck Luftfeuchtigkeit
    00:00 +14°C° 0 mm 1 m/S 757 mmHg 86%
    01:00 +13°C° 0 mm 1 m/S 757 mmHg 88%
    02:00 +13°C° 0 mm 1 m/S 756 mmHg 89%
    03:00 +13°C° 0 mm 2 m/S 756 mmHg 90%
    04:00 +13°C° 0 mm 2 m/S 756 mmHg 91%
    05:00 +13°C° 0 mm 2 m/S 756 mmHg 92%
    06:00 +12°C° 0 mm 2 m/S 756 mmHg 93%
    07:00 +14°C° 0 mm 2 m/S 756 mmHg 89%
    08:00 +15°C° 0 mm 2 m/S 756 mmHg 86%
    09:00 +17°C° 0 mm 3 m/S 756 mmHg 82%
    10:00 +18°C° 0 mm 3 m/S 756 mmHg 78%
    11:00 +19°C° 0 mm 3 m/S 756 mmHg 73%
    12:00 +20°C° 0 mm 3 m/S 756 mmHg 69%
    13:00 +20°C° 0 mm 3 m/S 755 mmHg 70%
    14:00 +20°C° 0 mm 3 m/S 755 mmHg 71%
    15:00 +20°C° 0 mm 3 m/S 755 mmHg 72%
    16:00 +18°C° 0 mm 3 m/S 755 mmHg 75%
    17:00 +17°C° 0 mm 3 m/S 755 mmHg 78%
    18:00 +16°C° 0 mm 3 m/S 754 mmHg 81%
    19:00 +16°C° 0 mm 3 m/S 754 mmHg 81%
    20:00 +16°C° 0 mm 3 m/S 754 mmHg 81%
    21:00 +16°C° 0 mm 3 m/S 755 mmHg 81%
    22:00 +15°C° 0 mm 4 m/S 755 mmHg 80%
    23:00 +17°C° 0 mm 4 m/S 755 mmHg 79%

    Morgen, 20 Oktober, Freitag

    Zeit Temperatur Niederschläge Wind Luftdruck Luftfeuchtigkeit
    00:00 +17°C° 0 mm 4 m/S 755 mmHg 78%
    01:00 +17°C° 0,1 mm 4 m/S 754 mmHg 76%
    02:00 +15°C° 0,1 mm 4 m/S 754 mmHg 75%
    03:00 +15°C° 0,1 mm 5 m/S 754 mmHg 74%
    04:00 +15°C° 0,1 mm 5 m/S 754 mmHg 74%
    05:00 +15°C° 0,1 mm 5 m/S 754 mmHg 74%
    06:00 +15°C° 0,1 mm 5 m/S 754 mmHg 74%
    07:00 +15°C° 0,4 mm 5 m/S 754 mmHg 77%
    08:00 +15°C° 0,4 mm 6 m/S 755 mmHg 81%
    09:00 +15°C° 0,4 mm 7 m/S 755 mmHg 84%
    10:00 +15°C° 0,3 mm 7 m/S 755 mmHg 80%
    11:00 +16°C° 0,3 mm 7 m/S 755 mmHg 76%
    12:00 +16°C° 0,3 mm 6 m/S 756 mmHg 72%
    13:00 +16°C° 0,1 mm 6 m/S 756 mmHg 72%
    14:00 +15°C° 0,1 mm 5 m/S 756 mmHg 71%
    15:00 +15°C° 0,1 mm 5 m/S 756 mmHg 71%
    16:00 +14°C° 0 mm 4 m/S 756 mmHg 73%
    17:00 +13°C° 0 mm 4 m/S 757 mmHg 75%
    18:00 +12°C° 0 mm 4 m/S 757 mmHg 77%
    19:00 +11°C° 0 mm 3 m/S 758 mmHg 78%
    20:00 +11°C° 0 mm 3 m/S 758 mmHg 79%
    21:00 +10°C° 0 mm 3 m/S 758 mmHg 80%
    22:00 +10°C° 0 mm 3 m/S 758 mmHg 82%
    23:00 +10°C° 0 mm 3 m/S 758 mmHg 83%

    übermorgen, 21 Oktober, Samstag

    Zeit Temperatur Niederschläge Wind Luftdruck Luftfeuchtigkeit
    00:00 +10°C° 0 mm 3 m/S 758 mmHg 84%
    01:00 +10°C° 0 mm 3 m/S 757 mmHg 82%
    02:00 +10°C° 0 mm 3 m/S 757 mmHg 81%
    03:00 +11°C° 0 mm 4 m/S 757 mmHg 79%
    04:00 +11°C° 0 mm 4 m/S 756 mmHg 79%
    05:00 +11°C° 0 mm 4 m/S 756 mmHg 79%
    06:00 +10°C° 0 mm 5 m/S 755 mmHg 78%
    07:00 +10°C° 0,4 mm 5 m/S 755 mmHg 82%
    08:00 +12°C° 0,4 mm 5 m/S 755 mmHg 86%
    09:00 +13°C° 0,4 mm 5 m/S 755 mmHg 90%
    10:00 +13°C° 0,3 mm 6 m/S 755 mmHg 88%
    11:00 +14°C° 0,3 mm 6 m/S 755 mmHg 87%
    12:00 +15°C° 0,3 mm 6 m/S 755 mmHg 85%
    13:00 +15°C° 0,1 mm 6 m/S 755 mmHg 83%
    14:00 +15°C° 0,1 mm 6 m/S 755 mmHg 82%
    15:00 +15°C° 0,1 mm 5 m/S 754 mmHg 80%
    16:00 +14°C° 0 mm 5 m/S 755 mmHg 82%
    17:00 +13°C° 0 mm 5 m/S 755 mmHg 84%
    18:00 +12°C° 0 mm 4 m/S 755 mmHg 85%
    19:00 +10°C° 0 mm 5 m/S 755 mmHg 83%
    20:00 +10°C° 0 mm 5 m/S 755 mmHg 81%
    21:00 +10°C° 0 mm 6 m/S 755 mmHg 79%
    22:00 +10°C° 0 mm 6 m/S 755 mmHg 78%
    23:00 +9°C° 0 mm 6 m/S 755 mmHg 77%

    22 Oktober, Sonntag

    Zeit Temperatur Niederschläge Wind Luftdruck Luftfeuchtigkeit
    00:00 +9°C° 0 mm 6 m/S 755 mmHg 76%
    01:00 +9°C° 0 mm 6 m/S 755 mmHg 76%
    02:00 +9°C° 0 mm 6 m/S 755 mmHg 76%
    03:00 +9°C° 0 mm 7 m/S 755 mmHg 76%
    04:00 +9°C° 0 mm 7 m/S 755 mmHg 77%
    05:00 +8°C° 0 mm 7 m/S 755 mmHg 77%
    06:00 +8°C° 0 mm 7 m/S 755 mmHg 78%
    07:00 +9°C° 0 mm 7 m/S 755 mmHg 76%
    08:00 +9°C° 0 mm 7 m/S 755 mmHg 74%
    09:00 +10°C° 0 mm 8 m/S 755 mmHg 73%
    10:00 +10°C° 0 mm 8 m/S 755 mmHg 72%
    11:00 +10°C° 0 mm 7 m/S 755 mmHg 72%
    12:00 +10°C° 0 mm 7 m/S 755 mmHg 71%
    13:00 +10°C° 0,1 mm 7 m/S 755 mmHg 73%
    14:00 +10°C° 0,1 mm 7 m/S 755 mmHg 74%
    15:00 +10°C° 0,1 mm 7 m/S 755 mmHg 75%
    16:00 +10°C° 0,6 mm 7 m/S 756 mmHg 79%
    17:00 +9°C° 0,6 mm 7 m/S 756 mmHg 83%
    18:00 +9°C° 0,6 mm 7 m/S 756 mmHg 87%
    19:00 +9°C° 0,1 mm 6 m/S 756 mmHg 88%
    20:00 +9°C° 0,1 mm 6 m/S 757 mmHg 90%
    21:00 +8°C° 0,1 mm 6 m/S 757 mmHg 91%
    22:00 +8°C° 0 mm 6 m/S 757 mmHg 91%
    23:00 +8°C° 0 mm 5 m/S 758 mmHg 91%

    23 Oktober, Montag

    Zeit Temperatur Niederschläge Wind Luftdruck Luftfeuchtigkeit
    00:00 +8°C° 0 mm 5 m/S 758 mmHg 91%
    01:00 +8°C° 0 mm 5 m/S 758 mmHg 92%
    02:00 +8°C° 0 mm 5 m/S 759 mmHg 92%
    03:00 +8°C° 0 mm 5 m/S 759 mmHg 93%
    04:00 +8°C° 0,2 mm 5 m/S 760 mmHg 92%
    05:00 +9°C° 0,2 mm 5 m/S 760 mmHg 92%
    06:00 +9°C° 0,2 mm 5 m/S 761 mmHg 92%
    07:00 +10°C° 0 mm 5 m/S 761 mmHg 88%
    08:00 +12°C° 0 mm 5 m/S 762 mmHg 85%
    09:00 +12°C° 0 mm 5 m/S 762 mmHg 82%
    10:00 +12°C° 0,1 mm 5 m/S 762 mmHg 82%
    11:00 +12°C° 0,1 mm 5 m/S 763 mmHg 81%
    12:00 +13°C° 0,1 mm 5 m/S 763 mmHg 81%
    13:00 +12°C° 0,2 mm 5 m/S 763 mmHg 84%
    14:00 +12°C° 0,2 mm 4 m/S 763 mmHg 88%
    15:00 +11°C° 0,2 mm 4 m/S 763 mmHg 91%
    16:00 +11°C° 0,2 mm 4 m/S 763 mmHg 92%
    17:00 +11°C° 0,2 mm 4 m/S 763 mmHg 93%
    18:00 +11°C° 0,2 mm 4 m/S 764 mmHg 94%
    19:00 +11°C° 0,1 mm 3 m/S 764 mmHg 95%
    20:00 +11°C° 0,1 mm 3 m/S 764 mmHg 95%
    21:00 +12°C° 0,1 mm 3 m/S 764 mmHg 96%
    22:00 +12°C° 0,1 mm 3 m/S 764 mmHg 96%
    23:00 +12°C° 0,1 mm 3 m/S 764 mmHg 97%

    24 Oktober, Dienstag

    Zeit Temperatur Niederschläge Wind Luftdruck Luftfeuchtigkeit
    00:00 +13°C° 0,1 mm 3 m/S 764 mmHg 97%
    01:00 +13°C° 0,1 mm 3 m/S 764 mmHg 97%
    02:00 +13°C° 0,1 mm 3 m/S 764 mmHg 96%
    03:00 +13°C° 0,1 mm 3 m/S 764 mmHg 96%
    04:00 +13°C° 0,1 mm 4 m/S 764 mmHg 96%
    05:00 +13°C° 0,1 mm 4 m/S 764 mmHg 96%
    06:00 +13°C° 0,1 mm 4 m/S 764 mmHg 96%
    07:00 +13°C° 0,1 mm 4 m/S 765 mmHg 95%
    08:00 +14°C° 0,1 mm 4 m/S 765 mmHg 94%
    09:00 +14°C° 0,1 mm 4 m/S 765 mmHg 94%
    10:00 +14°C° 0 mm 4 m/S 766 mmHg 93%
    11:00 +15°C° 0 mm 4 m/S 766 mmHg 92%
    12:00 +15°C° 0 mm 4 m/S 766 mmHg 91%
    13:00 +15°C° 0 mm 4 m/S 766 mmHg 91%
    14:00 +15°C° 0 mm 4 m/S 766 mmHg 91%
    15:00 +16°C° 0 mm 3 m/S 766 mmHg 92%
    16:00 +14°C° 0 mm 3 m/S 766 mmHg 93%
    17:00 +14°C° 0 mm 3 m/S 766 mmHg 94%
    18:00 +13°C° 0 mm 3 m/S 766 mmHg 95%
    19:00 +13°C° 0 mm 3 m/S 767 mmHg 95%
    20:00 +13°C° 0 mm 3 m/S 767 mmHg 95%
    21:00 +13°C° 0 mm 3 m/S 767 mmHg 95%
    22:00 +12°C° 0 mm 3 m/S 767 mmHg 95%
    23:00 +12°C° 0 mm 3 m/S 767 mmHg 95%
    Mehr zeigen